Flag for Germany Weather past 2 weeks in Ingelheim am Rhein, Rhineland-Palatinate, Germany

Now
64 °F

Sunny.


Feels Like: 64 °F
Forecast: 54 / 68 °F
Wind: 20 mph from West

Location: Wiesbaden Airport

Current Time: Jul 8, 2015 at 9:28:59 AM

Latest Report: Jul 8, 2015 at 8:58 AM


Visibility: N/A

Pressure: 29.88 "Hg

Humidity: 55%

Dew point: 47 °F

Location of Ingelheim am RheinLocation

Historic Weather in Ingelheim am Rhein — Graph

°F

Ingelheim am Rhein temperature yesterday

Maximum temperature yesterday: 93 °F (at 3:58 PM)
Minimum temperature yesterday: 58 °F (at 5:58 AM)
Average temperature yesterday: 77 °F

Past Weeks' High & Low Weather Summary

 TemperatureHumidityPressure
High100 °F (Jul 5, 5:58 PM)100% (Jun 27, 6:03 AM)30.24 "Hg (Jun 27, 6:03 AM)
Low50 °F (Jun 24, 4:04 AM)22% (Jul 5, 5:58 PM)29.72 "Hg (Jul 7, 5:58 PM)
Average73 °F60%30.08 "Hg
* Reported Jun 23 7:58 AM — Jul 8 7:58 AM, Ingelheim am Rhein, Weather by CustomWeather, © 2015

Note: Actual official high and low records may vary slightly from our data, if they occured in-between our weather recording intervals... More about our weather records

Advertising

Ingelheim am Rhein weather history for previous 24 hours

 ConditionsComfort  
Time TempWeatherWind HumidityBarometerVisibility
7:58 AM
Wed, Jul 8
61 °FOvercast.12 mph59%29.87 "HgN/A
6:58 AM62 °FOvercast.15 mph64%29.87 "HgN/A
5:58 AM61 °FPassing clouds.13 mph71%29.85 "HgN/A
4:58 AM63 °FPassing clouds.12 mph68%29.84 "HgN/A
3:58 AM64 °FMostly cloudy.14 mph62%29.83 "HgN/A
2:58 AM70 °FOvercast.24 mph60%29.80 "HgN/A
1:58 AM68 °FPassing clouds.7 mph73%29.77 "HgN/A
12:58 AM70 °FPassing clouds.7 mph69%29.76 "HgN/A
11:58 PM
Tue, Jul 7
72 °FOvercast.7 mph61%29.76 "HgN/A
10:58 PM73 °FOvercast.9 mph57%29.76 "HgN/A
9:58 PM73 °FCloudy.8 mph57%29.75 "HgN/A
8:58 PM74 °FBroken clouds.8 mph62%29.74 "HgN/A
7:58 PM75 °FScattered clouds.7 mph69%29.74 "HgN/A
7:04 PM86 °FBroken clouds.16 mph46%29.75 "HgN/A
5:58 PM91 °FScattered clouds.14 mph33%29.72 "HgN/A
5:04 PM93 °FPartly sunny.9 mph34%29.75 "HgN/A
4:58 PM93 °FScattered clouds.13 mph34%29.73 "HgN/A
3:58 PM93 °FSunny.10 mph30%29.75 "HgN/A
2:58 PM91 °FSunny.10 mph32%29.80 "HgN/A
1:58 PM90 °FPassing clouds.6 mph29%29.83 "HgN/A
12:58 PM88 °FSunny.1 mph34%29.85 "HgN/A
11:58 AM86 °FSunny.6 mph35%29.87 "HgN/A
10:58 AM82 °FSunny.5 mph35%29.89 "HgN/A
9:58 AM79 °FSunny.3 mph37%29.93 "HgN/A
Weather by CustomWeather, © 2015

See weather overviewHow to use our weather pages